Wind_Speed
3 2 2 2 2 3 4 5 6 7 8 9 9 10 10 10 10 10 11 11 12 12 11 10 9 8 8 9 9 10 9 9 9 8 8 7 7 6 6 6 7 8 8
3 3 2 2 1 1 1 2 3 5 6 6 7 8 8 8 8 9 9 10 11 11 11 10 9 8 7 7 7 8 9 9 8 7 7 6 6 6 5 4 4 5 6
5 4 4 4 3 3 3 3 3 4 5 5 5 6 6 7 7 8 9 9 10 11 11 10 8 7 6 6 6 6 7 7 7 7 7 6 5 5 4 3 2 2 3
6 6 6 5 5 5 5 5 5 5 5 5 5 5 6 6 7 8 8 9 10 10 10 10 9 8 6 5 5 5 5 5 5 6 6 6 5 4 3 2 2 1 1
7 7 7 7 6 6 6 6 6 6 5 5 6 6 7 7 7 8 8 9 9 10 10 10 9 8 7 6 6 5 4 5 5 5 5 4 4 3 3 2 1 0 0
8 8 8 7 7 7 7 6 6 6 7 7 8 8 9 9 9 9 9 10 10 10 10 10 9 8 8 8 7 6 5 4 4 5 5 5 5 4 3 3 2 2 2
9 9 8 8 8 8 7 7 7 8 9 9 10 11 12 12 12 12 12 12 13 13 12 11 11 10 10 10 9 8 7 6 5 5 6 5 5 5 4 4 4 4 4
9 9 8 8 8 8 8 9 10 11 12 12 13 13 14 14 15 15 16 16 16 16 15 15 14 14 14 13 12 11 11 9 8 7 7 7 6 7 6 6 6 6 6
9 9 9 9 10 11 11 12 13 14 15 15 16 16 16 17 18 19 19 19 19 19 19 18 18 18 18 17 17 16 15 14 12 12 11 10 9 9 8 8 7 7 7
10 10 11 12 13 14 14 15 15 16 16 17 17 18 19 19 20 21 22 22 22 22 22 22 21 21 21 21 21 20 20 19 17 16 15 15 13 12 12 11 10 9 9
12 14 16 17 17 17 17 17 17 17 18 18 19 19 20 21 22 23 24 24 25 24 25 25 24 25 25 25 24 24 24 23 22 21 19 19 18 17 15 14 14 12 12
17 19 20 21 21 21 20 20 20 20 20 21 21 21 22 22 23 24 25 26 26 26 26 26 26 27 27 27 27 26 26 26 25 24 23 23 22 22 20 18 17 16 15
24 24 25 25 25 24 23 23 22 23 23 23 23 23 23 23 24 24 25 26 26 26 26 27 27 27 27 27 26 26 26 26 26 25 25 25 25 25 24 22 21 19 19
27 29 29 29 28 28 27 26 26 25 26 26 25 25 24 24 24 23 23 24 25 26 26 26 26 25 25 25 25 25 25 24 25 26 26 26 26 27 27 26 25 24 22
29 31 33 32 32 31 30 30 29 28 28 27 25 25 24 24 25 25 24 24 24 24 25 25 25 25 25 24 24 24 25 24 24 25 26 25 25 26 28 28 27 27 25
34 35 36 35 35 34 32 32 30 29 28 27 25 25 25 25 25 26 25 25 24 24 24 24 24 24 23 23 22 22 22 22 23 24 24 25 25 26 27 27 27 27 27
39 42 41 40 40 38 35 33 32 30 28 27 26 26 26 25 26 25 25 25 24 24 24 24 23 23 22 21 21 21 20 21 21 22 23 23 25 26 27 27 28 28 27
43 47 47 45 39 37 36 35 32 30 29 27 27 27 27 26 26 25 25 24 24 23 23 23 22 21 20 19 19 18 18 19 20 20 21 22 24 25 26 27 27 27 28
45 47 47 43 38 36 36 34 32 30 29 29 27 27 27 26 26 25 25 24 23 23 22 22 21 20 19 18 17 17 17 17 18 19 20 21 23 25 26 27 27 27 29
44 46 44 41 39 33 29 28 27 26 27 26 26 26 25 26 26 25 25 24 23 22 22 21 20 19 18 17 16 16 16 17 17 18 20 21 22 24 26 27 28 28 29
43 44 45 41 35 28 25 27 27 25 24 23 25 25 24 25 25 25 24 24 23 23 22 21 20 19 18 17 16 16 16 16 16 17 19 20 22 23 24 26 28 29 30
43 45 43 38 32 28 25 22 21 20 22 24 24 24 25 26 25 24 24 24 24 23 22 22 21 20 20 18 17 17 17 17 17 18 19 20 21 22 23 25 27 29 31
43 41 39 35 32 29 26 22 21 20 21 22 21 21 23 24 25 25 24 24 24 24 23 23 22 22 21 20 19 18 18 18 19 19 19 20 21 22 22 24 27 29 31
40 38 36 35 33 31 26 24 23 21 22 21 21 22 22 22 24 25 25 26 25 25 26 25 25 23 23 23 21 20 19 18 19 21 21 21 20 21 21 22 24 27 29
40 40 38 37 34 33 30 28 27 26 25 25 25 24 24 24 25 26 27 28 28 28 28 29 28 26 25 25 24 22 21 20 19 19 21 22 21 20 20 21 22 24 26
43 43 43 41 39 37 35 34 33 32 31 31 29 28 27 28 28 29 29 29 30 30 31 31 31 30 29 27 26 25 23 22 21 20 20 22 22 21 20 20 21 22 24
Wind_Direction
151 145 114 106 90 69 55 41 30 22 17 15 16 17 19 21 24 25 24 23 23 22 22 23 25 27 32 37 41 44 46 49 52 54 55 57 59 63 69 78 88 99 105
198 206 214 224 238 277 351 4 5 3 2 1 3 6 8 9 8 10 12 12 13 13 11 10 11 13 17 22 28 32 35 38 41 45 50 55 60 65 68 74 87 100 106
225 230 237 248 259 271 288 305 321 331 338 340 344 347 350 352 351 350 353 357 1 3 2 0 360 1 2 7 14 20 23 26 27 32 38 43 50 59 67 71 83 96 109
237 239 245 254 263 273 284 292 300 308 315 319 322 326 327 328 330 333 335 339 346 350 352 352 353 354 358 0 4 8 10 11 9 11 21 27 31 38 48 53 66 94 123
240 245 252 258 266 275 282 287 292 296 299 301 302 304 305 304 306 310 315 320 327 335 339 341 343 346 348 352 355 357 359 0 354 344 352 5 4 11 14 4 349 23 153
255 256 258 261 267 272 276 278 282 286 287 289 292 293 293 291 289 291 294 300 307 314 320 322 324 327 331 334 338 343 346 348 345 333 327 333 333 335 335 318 295 274 265
267 264 263 264 267 270 272 273 276 280 283 285 287 287 286 284 283 283 285 288 293 298 302 303 303 305 308 311 316 322 326 328 328 323 316 314 307 301 297 293 284 274 265
267 267 266 269 274 276 278 278 279 281 282 282 282 282 281 279 279 280 281 284 287 290 292 292 291 292 294 295 298 301 304 306 309 308 305 300 292 286 280 278 276 273 266
265 268 272 277 281 283 284 283 283 282 282 281 280 280 279 278 277 278 279 281 283 285 285 284 283 284 285 286 288 290 291 292 294 296 297 294 287 283 277 271 269 267 266
268 275 280 284 286 287 286 285 285 284 283 282 281 280 279 278 277 277 277 278 279 280 281 281 280 281 281 282 283 284 284 284 285 286 287 287 282 279 276 271 266 263 262
275 281 284 286 288 287 287 288 287 287 286 285 283 282 281 280 279 278 278 277 277 277 278 278 278 278 279 279 280 280 280 280 281 281 281 280 279 276 273 269 265 262 259
282 281 282 283 286 286 288 290 291 292 292 291 288 286 284 282 281 279 278 277 277 276 276 276 276 277 277 277 276 277 277 276 277 278 276 275 273 272 270 266 263 260 257
283 281 279 280 283 286 288 290 293 295 295 294 292 289 286 284 282 280 279 279 278 277 276 275 275 275 277 278 277 276 275 274 274 274 272 269 268 267 265 264 261 257 255
280 279 278 278 281 284 286 288 291 294 296 295 293 289 286 284 282 281 279 278 278 278 277 276 276 276 276 276 276 275 275 274 273 273 272 268 265 263 261 259 258 254 252
276 275 276 275 277 280 284 287 289 290 291 292 291 288 286 284 283 281 279 277 276 275 274 274 274 275 275 275 273 274 276 275 274 274 272 270 268 265 262 257 253 251 248
278 278 276 273 271 271 274 278 280 282 284 285 284 282 280 280 280 279 277 276 274 272 269 268 268 270 272 272 273 274 276 276 275 273 272 270 268 267 265 260 253 251 246
284 283 280 276 269 266 263 264 268 271 273 275 276 274 274 275 277 277 277 275 274 272 270 266 265 264 265 267 269 272 274 276 276 274 272 270 268 267 265 262 256 251 246
292 289 283 277 268 263 257 254 257 261 264 268 271 271 273 275 276 278 278 276 273 271 269 266 263 262 262 264 267 271 275 279 281 280 278 274 270 268 266 262 257 252 248
294 294 285 288 281 272 261 258 256 255 258 264 268 271 274 277 279 280 279 276 273 270 266 262 260 261 262 264 268 273 278 282 285 287 286 282 275 269 266 262 259 252 246
298 301 301 297 294 290 274 260 257 255 257 262 268 271 273 277 278 278 276 273 271 269 264 258 256 257 259 264 269 273 278 283 287 290 291 288 283 276 269 263 258 253 246
305 305 308 308 305 298 288 274 266 259 258 260 266 266 270 273 275 274 271 269 268 265 260 254 253 255 256 259 265 272 276 281 287 292 294 292 288 281 273 265 258 253 248
302 304 308 312 309 305 295 288 275 272 265 268 266 264 268 269 270 270 267 264 263 260 255 251 252 255 256 258 263 270 277 282 286 291 295 295 292 287 279 269 260 254 249
301 305 308 309 309 307 303 292 291 285 285 281 276 271 268 267 266 265 262 261 259 256 252 250 252 255 257 259 261 266 272 280 287 292 295 296 295 291 284 274 265 257 252
299 303 305 307 306 305 302 296 293 290 288 287 282 279 271 268 267 264 261 259 256 253 251 250 251 254 257 260 262 265 269 274 282 290 295 297 297 293 288 281 271 260 254
296 301 303 304 303 302 300 298 294 290 287 285 283 280 274 271 267 262 259 258 256 253 251 250 251 253 255 259 263 267 271 274 278 284 292 297 299 295 290 284 275 265 257
297 300 302 303 303 301 299 296 292 288 284 281 278 275 273 269 264 261 259 257 256 254 253 253 253 254 255 257 261 265 271 275 278 282 287 294 298 297 293 286 279 268 259
Height
5921 5920 5919 5918 5917 5917 5916 5916 5916 5916 5915 5915 5914 5913 5911 5910 5909 5907 5906 5905 5903 5902 5901 5899 5898 5897 5896 5895 5894 5893 5893 5892 5891 5890 5889 5889 5888 5888 5887 5887 5887 5887 5887
5921 5920 5919 5918 5917 5917 5916 5916 5915 5915 5915 5914 5914 5913 5911 5910 5909 5908 5906 5905 5904 5902 5901 5899 5898 5897 5896 5895 5894 5894 5893 5892 5891 5891 5890 5889 5889 5888 5888 5888 5888 5888 5888
5920 5919 5918 5918 5917 5916 5916 5915 5915 5915 5914 5914 5913 5912 5911 5910 5909 5907 5906 5905 5903 5902 5901 5899 5898 5897 5896 5895 5894 5894 5893 5892 5891 5891 5890 5889 5889 5889 5889 5889 5889 5889 5889
5919 5919 5918 5917 5917 5916 5915 5915 5915 5914 5914 5913 5912 5911 5910 5909 5908 5907 5905 5904 5903 5901 5900 5899 5897 5896 5895 5894 5894 5893 5892 5892 5891 5890 5890 5889 5889 5889 5888 5889 5889 5889 5889
5919 5918 5918 5917 5916 5916 5915 5914 5914 5913 5912 5911 5911 5910 5909 5908 5906 5905 5904 5903 5902 5901 5899 5898 5897 5895 5895 5894 5893 5892 5892 5891 5890 5889 5889 5889 5888 5888 5888 5888 5888 5888 5889
5918 5918 5917 5916 5916 5915 5914 5913 5913 5912 5911 5909 5908 5907 5907 5906 5905 5904 5903 5902 5900 5899 5898 5897 5896 5895 5894 5893 5892 5892 5891 5890 5889 5888 5888 5888 5887 5887 5887 5887 5887 5888 5888
5917 5917 5916 5915 5915 5914 5913 5912 5911 5910 5908 5907 5906 5905 5904 5903 5902 5901 5900 5899 5899 5898 5897 5896 5895 5893 5892 5892 5891 5890 5890 5889 5889 5888 5887 5886 5886 5886 5886 5886 5886 5886 5886
5916 5915 5915 5914 5913 5912 5911 5910 5909 5907 5906 5904 5903 5902 5901 5900 5899 5898 5897 5897 5896 5895 5894 5893 5892 5891 5890 5890 5889 5888 5888 5888 5887 5887 5886 5885 5885 5884 5884 5884 5884 5884 5884
5914 5914 5913 5912 5911 5910 5908 5907 5905 5904 5902 5901 5900 5898 5897 5896 5895 5895 5894 5893 5892 5891 5891 5890 5889 5888 5887 5887 5886 5886 5885 5885 5885 5884 5884 5883 5883 5882 5882 5882 5882 5882 5882
5913 5912 5911 5910 5908 5906 5905 5903 5901 5900 5898 5897 5895 5894 5893 5892 5891 5890 5889 5888 5888 5887 5886 5885 5885 5884 5883 5882 5882 5882 5881 5881 5881 5880 5880 5880 5880 5879 5879 5879 5879 5879 5879
5911 5910 5908 5906 5904 5902 5900 5899 5897 5896 5894 5893 5891 5890 5888 5887 5886 5885 5884 5883 5882 5882 5881 5880 5880 5879 5878 5877 5877 5877 5876 5875 5875 5875 5875 5875 5875 5875 5876 5876 5876 5876 5876
5908 5906 5904 5902 5900 5897 5896 5894 5892 5891 5889 5888 5886 5884 5883 5882 5881 5879 5878 5877 5876 5876 5875 5875 5874 5873 5873 5872 5871 5871 5870 5870 5869 5869 5870 5870 5869 5870 5871 5871 5871 5872 5872
5904 5902 5899 5896 5894 5892 5890 5888 5887 5885 5884 5882 5880 5879 5877 5876 5874 5873 5872 5871 5870 5870 5869 5869 5868 5868 5867 5866 5865 5865 5864 5864 5863 5863 5863 5863 5863 5863 5864 5865 5866 5867 5868
5899 5896 5892 5889 5887 5885 5884 5882 5880 5879 5878 5876 5874 5872 5871 5869 5868 5867 5866 5865 5864 5863 5863 5862 5862 5862 5861 5860 5860 5859 5859 5858 5857 5857 5857 5857 5857 5857 5858 5858 5859 5861 5862
5891 5886 5883 5879 5877 5876 5875 5874 5873 5872 5871 5869 5867 5866 5864 5863 5861 5861 5860 5859 5858 5857 5857 5856 5856 5855 5855 5855 5854 5854 5853 5852 5852 5851 5851 5851 5851 5851 5851 5851 5851 5854 5856
5881 5879 5876 5871 5866 5865 5865 5865 5865 5865 5864 5863 5861 5860 5858 5857 5855 5854 5853 5852 5852 5851 5850 5850 5850 5850 5849 5849 5849 5848 5847 5847 5846 5846 5845 5845 5846 5846 5845 5845 5845 5847 5850
5873 5870 5867 5862 5856 5852 5852 5853 5854 5854 5855 5855 5855 5853 5852 5850 5849 5847 5846 5845 5845 5844 5844 5844 5844 5844 5844 5844 5843 5843 5842 5842 5841 5841 5840 5840 5840 5840 5839 5839 5840 5841 5843
5866 5861 5856 5849 5843 5839 5840 5839 5841 5842 5844 5845 5845 5844 5844 5843 5841 5840 5839 5838 5837 5837 5837 5837 5837 5838 5838 5838 5838 5837 5837 5836 5835 5835 5834 5834 5834 5834 5833 5833 5833 5835 5836
5858 5851 5843 5838 5832 5830 5829 5828 5830 5832 5834 5835 5834 5835 5835 5834 5833 5833 5832 5831 5831 5830 5831 5831 5832 5832 5832 5832 5832 5832 5831 5830 5830 5829 5828 5828 5827 5827 5827 5826 5827 5828 5830
5851 5845 5837 5831 5825 5823 5821 5820 5820 5822 5824 5826 5827 5826 5826 5826 5826 5826 5826 5825 5825 5825 5825 5825 5826 5827 5827 5827 5827 5827 5826 5825 5824 5823 5822 5821 5820 5820 5819 5820 5820 5821 5822
5843 5838 5833 5826 5822 5819 5816 5815 5815 5816 5818 5820 5820 5819 5819 5820 5819 5819 5819 5819 5819 5819 5819 5820 5820 5821 5822 5822 5822 5822 5821 5821 5820 5818 5816 5815 5813 5812 5812 5812 5813 5813 5814
5838 5835 5831 5825 5821 5818 5816 5815 5813 5812 5812 5813 5813 5813 5813 5813 5813 5812 5812 5812 5813 5813 5814 5815 5815 5816 5816 5817 5817 5817 5816 5816 5815 5813 5811 5809 5807 5805 5804 5804 5804 5805 5807
5833 5829 5825 5822 5817 5815 5813 5811 5809 5808 5807 5807 5807 5807 5806 5806 5805 5805 5805 5806 5806 5807 5808 5809 5809 5810 5811 5811 5811 5812 5811 5811 5809 5808 5806 5803 5801 5799 5797 5797 5797 5798 5799
5827 5823 5819 5816 5813 5810 5807 5805 5804 5803 5802 5801 5800 5799 5799 5798 5798 5798 5798 5799 5799 5800 5801 5802 5803 5803 5804 5805 5805 5805 5806 5805 5805 5802 5800 5798 5795 5793 5791 5790 5790 5790 5791
5819 5815 5812 5809 5806 5803 5801 5799 5798 5797 5795 5794 5793 5793 5792 5792 5791 5791 5791 5791 5792 5792 5793 5794 5795 5796 5797 5798 5798 5798 5798 5799 5799 5798 5795 5792 5790 5787 5786 5785 5784 5784 5785
5809 5805 5802 5799 5796 5794 5792 5790 5789 5788 5787 5786 5785 5784 5784 5784 5783 5783 5783 5784 5784 5784 5785 5785 5787 5788 5789 5790 5791 5791 5791 5791 5792 5792 5790 5787 5784 5782 5780 5779 5778 5778 5778